This is the latest recevied weather packets stored in our database for station/object K6POO-1. If no packets are shown the sender has not sent any weather packets the latest 10 day(s).
| Time | Temp. | Humidity | Pressure | Rain* | Wind** | Luminosity | Snow |
|---|---|---|---|---|---|---|---|
| 1778177527 | 16.11° C | 75% | 1019.9 hPa | 0 mm | - | 1054 W/m² | - |
| 1778177223 | 15.56° C | 77% | 1019.9 hPa | 0 mm | - | 935 W/m² | - |
| 1778176921 | 15° C | 77% | 1020 hPa | 0 mm | - | 1037 W/m² | - |
| 1778176615 | 15° C | 77% | 1020 hPa | 0 mm | - | 364 W/m² | - |
| 1778176307 | 15° C | 78% | 1019.8 hPa | 0 mm | - | 952 W/m² | - |
| 1778176004 | 14.44° C | 80% | 1020 hPa | 0 mm | - | 602 W/m² | - |
| 1778175703 | 14.44° C | 80% | 1019.8 hPa | 0 mm | - | 597 W/m² | - |
| 1778175399 | 13.89° C | 81% | 1019.8 hPa | 0 mm | - | 1025 W/m² | - |
| 1778175096 | 13.89° C | 83% | 1020 hPa | 0 mm | - | 884 W/m² | - |
| 1778174792 | 13.89° C | 83% | 1020.1 hPa | 0 mm | - | 481 W/m² | - |
| 1778174490 | 13.33° C | 84% | 1020 hPa | 0 mm | - | 361 W/m² | - |
| 1778174184 | 13.33° C | 84% | 1020 hPa | 0 mm | - | 884 W/m² | - |
| 1778173881 | 13.33° C | 84% | 1020 hPa | 0 mm | - | 460 W/m² | - |
| 1778173573 | 13.33° C | 86% | 1020.1 hPa | 0 mm | - | 269 W/m² | - |
| 1778173270 | 12.78° C | 85% | 1020.2 hPa | 0 mm | - | 282 W/m² | - |
| 1778172965 | 12.78° C | 86% | 1019.9 hPa | 0 mm | - | 292 W/m² | - |
| 1778172662 | 12.78° C | 86% | 1020 hPa | 0 mm | - | 291 W/m² | - |
| 1778172358 | 12.78° C | 85% | 1019.9 hPa | 0 mm | - | 266 W/m² | - |
| 1778172055 | 12.78° C | 85% | 1019.9 hPa | 0 mm | - | 236 W/m² | - |
| 1778171753 | 12.78° C | 86% | 1020 hPa | 0 mm | - | 240 W/m² | - |
| 1778171451 | 12.78° C | 86% | 1019.9 hPa | 0 mm | - | 215 W/m² | - |
| 1778171150 | 12.22° C | 86% | 1019.9 hPa | 0 mm | - | 215 W/m² | - |
| 1778170848 | 12.22° C | 86% | 1020 hPa | 0 mm | - | 185 W/m² | - |
| 1778170544 | 12.22° C | 87% | 1019.9 hPa | 0 mm | - | 183 W/m² | - |
| 1778170241 | 12.22° C | 87% | 1019.8 hPa | 0 mm | - | 173 W/m² | - |
* Rain latest hour (hover to see other rain measurements)
** Current wind speed in m/s (hover to see current wind gust speed)